TimeEST,TemperatureF,Dew PointF,Humidity,Sea Level PressureIn,VisibilityMPH,Wind Direction,Wind SpeedMPH,Gust SpeedMPH,PrecipitationIn,Events,Conditions,WindDirDegrees,DateUTC
12:52 AM,26.1,23.0,88,30.32,10.0,Calm,Calm,-,N/A,,Clear,0,2012-11-16 05:52:00
1:52 AM,25.0,23.0,92,30.33,10.0,Calm,Calm,-,N/A,,Clear,0,2012-11-16 06:52:00
2:52 AM,25.0,21.9,88,30.32,10.0,Calm,Calm,-,N/A,,Clear,0,2012-11-16 07:52:00
3:52 AM,25.0,21.9,88,30.33,10.0,Calm,Calm,-,N/A,,Clear,0,2012-11-16 08:52:00
4:52 AM,25.0,21.9,88,30.33,9.0,Calm,Calm,-,N/A,,Clear,0,2012-11-16 09:52:00
5:52 AM,26.1,23.0,88,30.32,9.0,Calm,Calm,-,N/A,,Clear,0,2012-11-16 10:52:00
6:52 AM,24.1,21.9,91,30.33,9.0,Calm,Calm,-,N/A,,Clear,0,2012-11-16 11:52:00
7:52 AM,25.0,21.9,88,30.35,10.0,Calm,Calm,-,N/A,,Clear,0,2012-11-16 12:52:00
8:52 AM,30.0,26.1,85,30.36,10.0,Calm,Calm,-,N/A,,Clear,0,2012-11-16 13:52:00
9:52 AM,35.1,24.1,64,30.36,10.0,Calm,Calm,-,N/A,,Clear,0,2012-11-16 14:52:00
10:52 AM,39.0,21.0,49,30.34,10.0,Calm,Calm,-,N/A,,Clear,0,2012-11-16 15:52:00
11:52 AM,39.9,19.9,45,30.34,10.0,Calm,Calm,-,N/A,,Clear,0,2012-11-16 16:52:00
12:52 PM,41.0,19.9,43,30.32,10.0,Calm,Calm,-,N/A,,Clear,0,2012-11-16 17:52:00
1:52 PM,42.1,19.9,41,30.32,10.0,Calm,Calm,-,N/A,,Clear,0,2012-11-16 18:52:00
2:52 PM,39.9,19.9,45,30.33,10.0,West,4.6,-,N/A,,Clear,270,2012-11-16 19:52:00
3:52 PM,39.0,21.0,49,30.35,10.0,Calm,Calm,-,N/A,,Clear,0,2012-11-16 20:52:00
4:52 PM,37.0,19.9,50,30.37,10.0,Calm,Calm,-,N/A,,Clear,0,2012-11-16 21:52:00
5:52 PM,30.9,24.1,76,30.39,10.0,Calm,Calm,-,N/A,,Clear,0,2012-11-16 22:52:00
6:52 PM,30.0,21.9,72,30.40,10.0,Calm,Calm,-,N/A,,Clear,0,2012-11-16 23:52:00
7:52 PM,30.9,21.9,69,30.41,10.0,Calm,Calm,-,N/A,,Clear,0,2012-11-17 00:52:00
8:52 PM,28.9,21.9,75,30.43,10.0,Calm,Calm,-,N/A,,Clear,0,2012-11-17 01:52:00
9:52 PM,28.9,23.0,78,30.45,10.0,Calm,Calm,-,N/A,,Clear,0,2012-11-17 02:52:00
10:52 PM,27.0,21.9,81,30.46,10.0,Calm,Calm,-,N/A,,Clear,0,2012-11-17 03:52:00
11:52 PM,28.0,21.9,78,30.47,10.0,Calm,Calm,-,N/A,,Clear,0,2012-11-17 04:52:00